N2XP-3 Weather Reports


time (UTC)temp
C
wind
direction
speed
KPH
gust
KPH
rain 1hr
cm
rain 24hr
cm
rain mn
cm
humidity
%
barometer
mb
20260506002224 21 267 1.6 6.4 0.00 0.00 0.03 49 1006.6
20260506001721 21 290 3.2 3.2 0.00 0.00 0.03 49 1006.6
20260506001222 21 287 6.4 6.4 0.00 0.00 0.03 49 1006.5
20260506000720 21 276 6.4 1.6 0.00 0.00 0.03 48 1006.4
20260506000213 21 205 0.0 0.0 0.00 0.00 0.03 48 1006.4
20260505235714 21 249 6.4 3.2 0.00 0.00 0.03 47 1006.4
20260505235214 22 256 4.8 3.2 0.00 0.00 0.03 46 1006.4
20260505234711 22 90 6.4 0.0 0.00 0.00 0.03 46 1006.3
20260505233709 22 229 3.2 4.8 0.00 0.00 0.03 44 1006.3
20260505233206 22 0 9.7 6.4 0.00 0.00 0.03 43 1006.3
20260505232707 23 236 6.4 6.4 0.00 0.00 0.03 43 1006.1
20260505232255 23 224 6.4 4.8 0.00 0.00 0.03 42 1006.1
20260505232204 23 224 6.4 4.8 0.00 0.00 0.03 42 1006.1
20260505231756 23 231 4.8 11.3 0.00 0.00 0.03 42 1006.1
20260505231753 23 291 4.8 9.7 0.00 0.00 0.03 42 1006.0
20260505231701 23 231 4.8 11.3 0.00 0.00 0.03 42 1006.1
20260505231201 23 291 4.8 9.7 0.00 0.00 0.03 42 1006.0
20260505230152 23 267 12.9 6.4 0.00 0.00 0.03 40 1005.9
20260505225653 23 158 11.3 4.8 0.00 0.00 0.03 40 1005.9
20260505225150 23 256 8.0 8.0 0.00 0.00 0.03 40 1005.8
20260505224647 23 114 6.4 1.6 0.00 0.00 0.03 40 1005.8
20260505221140 25 305 11.3 11.3 0.00 0.00 0.03 37 1005.6
20260505220640 25 259 8.0 16.1 0.00 0.00 0.03 36 1005.7
20260505220131 26 291 8.0 19.3 0.00 0.00 0.03 35 1005.6
20260505215626 26 186 11.3 11.3 0.00 0.00 0.03 35 1005.5
20260505215228 26 210 11.3 6.4 0.00 0.00 0.03 35 1005.5
20260505215128 26 210 11.3 6.4 0.00 0.00 0.03 35 1005.5
20260505214623 26 201 14.5 12.9 0.00 0.00 0.03 35 1005.5
20260505214122 26 283 8.0 3.2 0.00 0.00 0.03 35 1005.4
20260505213621 26 13 8.0 8.0 0.00 0.00 0.03 36 1005.5
20260505213116 26 231 14.5 16.1 0.00 0.00 0.03 35 1005.5
20260505212617 26 229 12.9 6.4 0.00 0.00 0.03 35 1005.4
20260505211613 26 346 6.4 3.2 0.00 0.00 0.03 34 1005.3
20260505210100 26 271 8.0 9.7 0.00 0.00 0.03 33 1005.0
20260505205651 27 235 8.0 19.3 0.00 0.00 0.03 33 1005.1
20260505205558 27 235 8.0 19.3 0.00 0.00 0.03 33 1005.1
20260505205059 27 290 11.3 12.9 0.00 0.00 0.03 33 1005.2
20260505204554 27 257 6.4 6.4 0.00 0.00 0.03 33 1005.0
20260505203556 27 260 8.0 6.4 0.00 0.00 0.03 34 1005.0
20260505203051 27 225 9.7 8.0 0.00 0.00 0.03 33 1005.1
20260505202553 27 271 8.0 6.4 0.00 0.00 0.03 33 1005.3
20260505202049 27 264 16.1 20.9 0.00 0.00 0.03 32 1005.1
20260505201923 28 246 9.7 4.8 0.00 0.00 0.03 32 1005.2
20260505201543 28 304 14.5 8.0 0.00 0.00 0.03 32 1005.2
20260505201044 28 246 9.7 4.8 0.00 0.00 0.03 32 1005.2
20260505194710 28 170 14.5 12.9 0.00 0.00 0.03 34 1005.3
20260505194534 28 170 14.5 12.9 0.00 0.00 0.03 34 1005.3
20260505194033 28 270 9.7 11.3 0.00 0.00 0.03 34 1005.3
20260505193534 28 243 9.7 9.7 0.00 0.00 0.03 34 1005.5
20260505193030 28 238 12.9 14.5 0.00 0.00 0.03 33 1005.5
20260505192527 28 222 14.5 4.8 0.00 0.00 0.03 32 1005.4
20260505191519 29 271 11.3 12.9 0.00 0.00 0.03 32 1005.7
20260505191019 29 281 9.7 9.7 0.00 0.00 0.03 34 1005.7
20260505190121 29 264 8.0 12.9 0.00 0.00 0.03 34 1005.8
20260505190015 29 264 8.0 12.9 0.00 0.00 0.03 34 1005.8
20260505185516 28 180 9.7 6.4 0.00 0.00 0.03 33 1005.8
20260505184509 28 260 11.3 4.8 0.00 0.00 0.03 32 1006.0
20260505183509 28 211 12.9 8.0 0.00 0.00 0.03 32 1006.0
20260505183007 29 215 6.4 4.8 0.00 0.00 0.03 32 1006.0
20260505182507 29 283 12.9 24.1 0.00 0.00 0.03 33 1006.3
20260505181501 29 218 17.7 8.0 0.00 0.00 0.03 33 1006.3
20260505181001 28 285 9.7 6.4 0.00 0.00 0.03 36 1006.2
20260505175956 28 359 6.4 4.8 0.00 0.00 0.03 37 1006.4
20260505174636 28 212 14.5 6.4 0.03 0.00 0.03 36 1006.6
20260505174452 28 314 14.5 9.7 0.03 0.00 0.03 37 1006.6
20260505173953 28 212 14.5 6.4 0.03 0.00 0.03 36 1006.6
20260505173610 29 260 11.3 11.3 0.03 0.00 0.03 37 1006.8
20260505173453 29 260 11.3 11.3 0.03 0.00 0.03 37 1006.8
20260505172950 29 285 9.7 8.0 0.03 0.00 0.03 37 1006.6
20260505172450 29 271 6.4 19.3 0.03 0.00 0.03 38 1006.6
20260505172253 29 200 8.0 9.7 0.03 0.00 0.03 38 1006.7
20260505171951 29 200 8.0 9.7 0.03 0.00 0.03 38 1006.7
20260505171447 29 224 9.7 11.3 0.03 0.00 0.03 39 1006.9
20260505170947 28 271 9.7 6.4 0.03 0.00 0.03 39 1006.9
20260505170448 28 269 8.0 1.6 0.03 0.00 0.03 39 1007.0
20260505170141 28 203 8.0 19.3 0.03 0.00 0.03 39 1007.1
20260505165944 28 203 8.0 19.3 0.03 0.00 0.03 39 1007.1
20260505164946 28 183 6.4 8.0 0.03 0.00 0.03 40 1007.1
20260505164717 28 345 11.3 3.2 0.00 0.00 0.03 41 1007.3
20260505164441 28 345 11.3 3.2 0.00 0.00 0.03 41 1007.3
20260505163942 28 290 8.0 9.7 0.00 0.00 0.03 41 1007.3
20260505163443 28 287 11.3 6.4 0.00 0.00 0.03 41 1007.3
20260505162147 27 252 6.4 12.9 0.00 0.00 0.03 42 1007.5
20260505161939 27 252 6.4 12.9 0.00 0.00 0.03 42 1007.5
20260505161435 27 212 9.7 9.7 0.00 0.00 0.03 43 1007.5
20260505161144 27 281 6.4 8.0 0.00 0.00 0.03 43 1007.5
20260505160935 27 281 6.4 8.0 0.00 0.00 0.03 43 1007.5
20260505152642 26 235 4.8 6.4 0.00 0.00 0.00 45 1008.0
20260505152413 26 235 4.8 6.4 0.00 0.00 0.00 45 1008.0
20260505151623 26 297 8.0 11.3 0.00 0.00 0.00 44 1008.1
20260505151410 26 297 8.0 11.3 0.00 0.00 0.00 44 1008.1
20260505151135 26 245 4.8 8.0 0.00 0.00 0.00 44 1008.2
20260505150910 26 245 4.8 8.0 0.00 0.00 0.00 44 1008.2
20260505150640 26 236 9.7 6.4 0.00 0.00 0.00 44 1008.2
20260505150407 26 236 9.7 6.4 0.00 0.00 0.00 44 1008.2
20260505140348 28 238 3.2 3.2 0.00 0.00 0.00 41 1008.8
20260505124822 25 297 6.4 9.7 0.00 0.00 0.00 52 1008.7
20260505124317 25 256 8.0 4.8 0.00 0.00 0.00 50 1008.7
20260505123818 26 243 6.4 4.8 0.00 0.00 0.00 49 1008.7
20260505123318 26 233 4.8 3.2 0.00 0.00 0.00 50 1008.5
20260505122816 25 269 1.6 6.4 0.00 0.00 0.00 53 1008.3
20260505122315 24 271 6.4 6.4 0.00 0.00 0.00 57 1008.4
20260505121816 22 245 8.0 3.2 0.00 0.00 0.00 61 1008.2
20260505121314 20 257 4.8 6.4 0.00 0.00 0.00 67 1008.4
20260505120914 19 246 6.4 4.8 0.00 0.00 0.00 71 1008.3
20260505120814 19 246 6.4 4.8 0.00 0.00 0.00 71 1008.3
20260505120425 20 288 4.8 6.4 0.00 0.00 0.00 68 1008.4
20260505120315 20 288 4.8 6.4 0.00 0.00 0.00 68 1008.4
20260505115311 20 218 3.2 1.6 0.00 0.00 0.00 71 1008.5
20260505114812 19 224 3.2 3.2 0.00 0.00 0.00 73 1008.6
20260505114306 18 284 6.4 3.2 0.00 0.00 0.00 75 1008.5
20260505113807 19 307 4.8 11.3 0.00 0.00 0.00 75 1008.6
20260505113305 18 235 4.8 4.8 0.00 0.00 0.00 79 1008.7
20260505112304 16 281 0.0 0.0 0.00 0.00 0.00 88 1008.6
20260505111758 15 281 0.0 0.0 0.00 0.00 0.00 94 1008.7
20260505111331 12 298 0.0 0.0 0.00 0.00 0.00 98 1008.6
20260505111246 12 298 0.0 0.0 0.00 0.00 0.00 98 1008.6
20260505110747 11 218 0.0 0.0 0.00 0.00 0.00 95 1008.6
20260505110245 11 218 0.0 0.0 0.00 0.00 0.00 95 1008.4
20260505101723 10 218 0.0 0.0 0.00 0.00 0.00 92 1008.3
20260505101218 10 218 0.0 0.0 0.00 0.00 0.00 92 1008.5
20260505100716 10 218 0.0 0.0 0.00 0.00 0.00 92 1008.5
20260505095651 10 201 1.6 0.0 0.00 0.00 0.00 91 1008.4
20260505095150 10 224 0.0 0.0 0.00 0.00 0.00 91 1008.4
20260505094650 9 224 0.0 0.0 0.00 0.00 0.00 91 1008.3
20260505094141 9 291 0.0 0.0 0.00 0.00 0.00 91 1008.3
20260505093142 9 291 0.0 0.0 0.00 0.00 0.00 90 1008.1
20260505092139 9 291 0.0 0.0 0.00 0.00 0.00 90 1008.0
20260505091638 9 291 0.0 0.0 0.00 0.00 0.00 90 1007.8
20260505091133 9 291 0.0 0.0 0.00 0.00 0.00 89 1007.7
20260505090134 9 291 0.0 0.0 0.00 0.00 0.00 89 1007.7
20260505085628 9 291 0.0 0.0 0.00 0.00 0.00 89 1007.6
20260505085312 9 291 0.0 0.0 0.00 0.00 0.00 88 1007.7
20260505085129 9 291 0.0 0.0 0.00 0.00 0.00 88 1007.7
20260505084629 9 291 0.0 0.0 0.00 0.00 0.00 88 1007.5
20260505084123 9 291 0.0 0.0 0.00 0.00 0.00 88 1007.5
20260505083621 9 291 0.0 0.0 0.00 0.00 0.00 88 1007.5
20260505082618 9 291 0.0 0.0 0.00 0.00 0.00 87 1007.6
20260505082112 9 291 0.0 0.0 0.00 0.00 0.00 87 1007.6
20260505081609 10 205 0.0 0.0 0.00 0.00 0.00 87 1007.6
20260505081101 10 280 0.0 0.0 0.00 0.00 0.00 86 1007.6
20260505080601 9 340 0.0 0.0 0.00 0.00 0.00 86 1007.6
20260505074555 10 340 0.0 0.0 0.00 0.00 0.00 85 1007.5
20260505074042 10 340 0.0 0.0 0.00 0.00 0.00 85 1007.5
20260505073536 10 340 0.0 0.0 0.00 0.00 0.00 85 1007.5
20260505072025 10 340 0.0 0.0 0.00 0.00 0.00 85 1007.5
20260505071525 10 340 0.0 0.0 0.00 0.00 0.00 84 1007.5
20260505071019 10 340 0.0 0.0 0.00 0.00 0.00 84 1007.5
20260505070924 10 340 0.0 0.0 0.00 0.00 0.00 84 1007.5
20260505070520 10 340 0.0 0.0 0.00 0.00 0.00 84 1007.5
20260505070020 9 340 0.0 0.0 0.00 0.00 0.00 84 1007.5
20260505065517 9 340 0.0 0.0 0.00 0.00 0.00 84 1007.5
20260505065018 9 340 0.0 0.0 0.00 0.00 0.00 83 1007.6
20260505064518 10 340 0.0 0.0 0.00 0.00 0.00 83 1007.7
20260505064041 10 340 0.0 0.0 0.00 0.00 0.00 82 1007.6
20260505064009 10 340 0.0 0.0 0.00 0.00 0.00 82 1007.6
20260505063509 10 340 0.0 0.0 0.00 0.00 0.00 82 1007.6
20260505063009 10 340 0.0 0.0 0.00 0.00 0.00 82 1007.6
20260505062000 10 340 0.0 0.0 0.00 0.00 0.00 81 1007.6
20260505061501 10 340 0.0 0.0 0.00 0.00 0.00 81 1007.7
20260505060958 10 340 0.0 0.0 0.00 0.00 0.00 81 1007.7
20260505060458 10 340 0.0 0.0 0.00 0.00 0.00 81 1007.8
20260505055454 10 340 0.0 0.0 0.00 0.00 0.00 80 1007.7
20260505054954 10 340 0.0 0.0 0.00 0.00 0.00 80 1007.7
20260505054528 10 340 0.0 0.0 0.00 0.00 0.00 80 1007.8
20260505054443 10 340 0.0 0.0 0.00 0.00 0.00 80 1007.8
20260505053441 10 328 1.6 0.0 0.00 0.00 0.00 80 1007.8
20260505052940 10 291 0.0 0.0 0.00 0.00 0.00 80 1007.8
20260505052540 10 316 0.0 1.6 0.00 0.00 0.00 80 1007.8
20260505052435 10 316 0.0 1.6 0.00 0.00 0.00 80 1007.8
20260505051934 10 276 0.0 0.0 0.00 0.00 0.00 80 1007.8
20260505051434 10 276 0.0 0.0 0.00 0.00 0.00 79 1007.8
20260505051035 10 256 1.6 0.0 0.00 0.00 0.00 79 1007.9
20260505050929 10 256 1.6 0.0 0.00 0.00 0.00 79 1007.9
20260505041359 11 281 0.0 0.0 0.00 0.00 0.00 76 1007.9
20260505040849 11 281 0.0 0.0 0.00 0.00 0.00 76 1007.9
20260505035841 11 281 0.0 0.0 0.00 0.00 0.00 76 1007.9
20260505035337 11 281 0.0 0.0 0.00 0.00 0.00 75 1007.9
20260505035223 11 281 0.0 0.0 0.00 0.00 0.00 75 1007.9
20260505034836 11 281 0.0 0.0 0.00 0.00 0.00 75 1007.9
20260505034336 11 281 0.0 0.0 0.00 0.00 0.00 75 1007.9
20260505033828 11 281 0.0 0.0 0.00 0.00 0.00 75 1007.9
20260505033329 11 281 0.0 0.0 0.00 0.00 0.00 74 1008.0
20260505032829 11 281 0.0 0.0 0.00 0.00 0.00 74 1008.1
20260505032325 11 281 0.0 0.0 0.00 0.00 0.00 74 1008.2
20260505031826 11 281 0.0 0.0 0.00 0.00 0.00 74 1008.2
20260505031326 11 281 0.0 0.0 0.00 0.00 0.00 73 1008.1
20260505030822 11 281 0.0 0.0 0.00 0.00 0.00 73 1008.1
20260505030320 11 281 0.0 0.0 0.00 0.00 0.00 73 1008.1
20260505025821 11 281 0.0 0.0 0.00 0.00 0.00 74 1008.1
20260505025316 11 281 0.0 0.0 0.00 0.00 0.00 73 1008.2
20260505024817 11 281 0.0 0.0 0.00 0.00 0.00 73 1008.2
20260505024318 11 281 0.0 0.0 0.00 0.00 0.00 72 1008.2
20260505023815 12 281 0.0 0.0 0.00 0.00 0.00 72 1008.2
20260505023315 12 281 0.0 0.0 0.00 0.00 0.00 71 1008.2
20260505022816 12 281 0.0 0.0 0.00 0.00 0.00 70 1008.2
20260505022308 12 281 0.0 0.0 0.00 0.00 0.00 69 1008.3
20260505021809 12 201 0.0 0.0 0.00 0.00 0.00 69 1008.2
20260505021309 12 201 0.0 0.0 0.00 0.00 0.00 69 1008.2
20260505020848 12 201 0.0 0.0 0.00 0.00 0.00 68 1008.3
20260505020803 12 201 0.0 0.0 0.00 0.00 0.00 68 1008.3
20260505020304 12 201 0.0 0.0 0.00 0.00 0.00 67 1008.2
20260505015805 12 201 0.0 0.0 0.00 0.00 0.00 67 1008.2
20260505015256 13 201 0.0 0.0 0.00 0.00 0.00 67 1008.2
20260505014257 13 201 0.0 0.0 0.00 0.00 0.00 67 1008.2
20260505013753 13 201 0.0 0.0 0.00 0.00 0.00 66 1008.1
20260505013250 13 201 0.0 0.0 0.00 0.00 0.00 65 1008.1
20260505012243 13 201 0.0 0.0 0.00 0.00 0.00 64 1008.0
20260505011744 13 201 0.0 0.0 0.00 0.00 0.00 64 1007.9
20260505011322 13 201 0.0 0.0 0.00 0.00 0.00 64 1008.0
20260505011242 13 201 0.0 0.0 0.00 0.00 0.00 64 1008.0
20260505010739 13 201 0.0 0.0 0.00 0.00 0.00 63 1007.8
20260505010321 14 201 0.0 0.0 0.00 0.00 0.00 62 1007.8
20260505010239 14 201 0.0 0.0 0.00 0.00 0.00 62 1007.8
20260505005738 14 201 0.0 0.0 0.00 0.00 0.00 61 1007.7
20260505005231 14 201 0.0 0.0 0.00 0.00 0.00 61 1007.7
20260505004731 15 201 0.0 0.0 0.00 0.00 0.00 60 1007.7
20260505004231 15 201 0.0 0.0 0.00 0.00 0.00 60 1007.7
20260505003727 15 201 0.0 0.0 0.00 0.00 0.00 60 1007.6